FENGYUN 1C DEB

Satellite information

Favourite Embed

Satellite Type and Status

DEBRISIN ORBIT

Key statistics

Satellite FENGYUN 1C DEB at a glance.

Uptime

9714

Days in orbit

Revolutions

≈ 15.2

Per day

Orbit

SSO

Sun Synchronous Orbit

Inclination

99.0

Latest

Satellite identification and parameters

Extended collection of information and parameters for FENGYUN 1C DEB.

Object identification

Identified? True

Debris? True

Object name: FENGYUN 1C DEB

International designator: 1999-025DA

Object number (NORAD): 29808

Object ID (CCSDS): 29808

Country: PEOPLES REPUBLIC OF CHINA (PRC)

Current information (Y/N): Y

RCS size: SMALL

Orbital parameters

Period: 94.622 minutes

Inclination: 99.014 deg

SMA: 6878.413 km

Apoapsis: 513.359 km

Periapsis: 487.198 km

RAAN: 264.5903 deg

Eccentricy: 0.00190161

Argument of periapsis: 93.8162 deg

Mean anomaly: 28.826 deg

Mean motion: 15.21844727 rev/day

Mean motion (dot): 0.00426109 rev/day2

B* drag term: 0.017640051 1/REarth

Two-line elements (TLE)

Creation date: Dec. 12, 2025, 10:14 a.m.

Reference frame: TEME

Reference center: EARTH

Epoch: Dec. 12, 2025, 7:48 a.m. UTC

TLE line 0: 0 FENGYUN 1C DEB

TLE line 1: 1 29808U 99025DA 25346.32548351 .00426109 00000-0 17640-1 0 9994

TLE line 2: 2 29808 99.0140 264.5903 0019016 93.8162 28.8260 15.21844727982193

Live tracking on map

Real-time ground track for satellite FENGYUN 1C DEB.

In-orbit conjunctions

A list of the most updated potential collisions computed for object FENGYUN 1C DEB.

Target Orbit TCA Probability of collision Miss distance Type
OBJECT D SSO 2025-12-10 07:13:04 0.0001103113 86.0 (m) UNKNOWN
CZ-6A DEB SSO 2024-11-15 11:09:51 0.0001774546 183.0 (m) DEBRIS
CZ-6A DEB SSO 2024-09-26 02:02:23 0.0001982832 340.0 (m) DEBRIS

Associated space launch

Chinese polar orbiting meteorological satellite

FENGYUN 1C DEB was lifted into orbit during the mission ‘Long March 4B | Feng Yun 1C’, on board a Long March 4B space rocket.

The launch took place on May 10, 1999, 1:33 a.m. from Launch Complex 7.

For more information about the launch, click the button.

Launch to space Long March 4B | Feng Yun 1C
Long March 4B | Feng Yun 1C

Agency: N/A

Status: Launch Successful

Launch date: May 10, 1999, 1:33 a.m. UTC

Rocket: Long March 4B

Launch pad: Launch Complex 7

Location: Taiyuan Satellite Launch Center, People's Republic of China

...

Latest news about this satellite

There are no fresh news available about this satellite. Check back as we update our databases every day.


Newsletter sign-up

Weekly statistics, charts and insights to help you stay on top of the space industry.